Location: Columbia
(38.9520°N, 92.3340°W)
Time: 12:23:14
(UTC-05:00)

Cosmos 1633 - Visible Passes

Search period start: 29 April 2017 00:00
Search period end: 09 May 2017 00:00
Orbit: 471 x 490 km, 82.5° (Epoch: 27 April)

Date Brightness Start Highest point End Pass type
(mag) Time Alt. Az. Time Alt. Az. Time Alt. Az.
29 Apr 4.2 22:45:59 10° NNW 22:48:06 33° NNW 22:48:06 33° NNW visible
30 Apr 3.5 22:20:03 10° N 22:22:39 41° NNE 22:22:39 41° NNE visible
01 May 3.5 21:54:19 10° N 21:57:12 34° ENE 21:57:12 34° ENE visible
01 May 5.7 23:30:57 10° WNW 23:31:31 11° WNW 23:31:31 11° WNW visible
02 May 4.0 21:28:49 10° NNE 21:31:43 21° ENE 21:31:47 21° ENE visible
02 May 5.0 23:03:51 10° NW 23:06:06 19° WNW 23:06:06 19° WNW visible
03 May 4.6 21:03:49 10° NE 21:05:38 13° ENE 21:06:23 13° E visible
03 May 4.0 22:37:24 10° NNW 22:40:42 33° W 22:40:42 33° W visible
04 May 2.9 22:11:13 10° NNW 22:14:52 59° W 22:15:19 54° SW visible
05 May 2.5 21:45:14 10° N 21:48:56 76° E 21:49:58 45° SSE visible
06 May 3.1 21:19:26 10° N 21:22:57 41° E 21:24:37 25° SE visible
06 May 5.6 22:57:03 10° WNW 22:57:28 10° W 22:57:54 10° W visible
07 May 3.9 20:53:51 10° NNE 20:56:56 24° ENE 20:59:20 14° SE visible
07 May 5.2 22:29:13 10° NW 22:31:42 17° W 22:33:38 12° SW visible
08 May 4.4 22:02:39 10° NNW 22:05:52 29° W 22:08:22 14° SW visible
